Location: Stockholm
(59.3330°N, 18.0500°E)
Time: 14:04:39
(UTC+01:00)

Envisat - Pass Details

Date: 07 December 2022
Orbit: 763 x 765 km, 98.2° (Epoch: 29 January)

Event Time Altitude Azimuth Distance (km) Brightness Sun altitude
Rises 15:51:04 0° 195° (SSW) 3,225 7.1 -6.7°
Reaches altitude 10° 15:53:37 10° 205° (SSW) 2,304 6.5 -7.0°
Maximum altitude 15:58:06 31° 267° (W) 1,329 5.0 -7.5°
Drops below altitude 10° 16:02:38 10° 330° (NNW) 2,319 5.5 -8.0°
Sets 16:05:13 0° 340° (NNW) 3,250 6.1 -8.2°
